CMP828 SEQM-MPTO

Flight info

Callsign CMP828
Flight time 1h 28m
Altitude 36000
Route NEGAL3A NEGAL DCT ENSOL UM674 TOKUT DCT MILAT DCT SIRIL SIRIL3A
Aircraft B738/M-SDE2E3FGHIRWXY/LB1

Departure

Time 2026-04-30 02:22
Airport Mariscal Sucre International Airport (SEQM)

Arrival

Time 2026-04-30 03:50
Airport Tocumen International Airport (MPTO)
Time Latitude Longitude Altitude Speed Heading
2026-04-30 01:37 -0.12550 -78.35918 7840 ft 0 kts 267°
2026-04-30 02:05 -0.12549 -78.35912 7840 ft 2 kts 265°
2026-04-30 02:06 -0.12548 -78.35895 7830 ft 2 kts 267°
2026-04-30 02:06 -0.12547 -78.35879 7842 ft 2 kts 266°
2026-04-30 02:06 -0.12546 -78.35863 7832 ft 2 kts 264°
2026-04-30 02:06 -0.12543 -78.35846 7838 ft 2 kts 250°
2026-04-30 02:07 -0.12534 -78.35836 7835 ft 1 kts 181°
2026-04-30 02:07 -0.12530 -78.35835 7834 ft 0 kts 178°
2026-04-30 02:08 -0.12532 -78.35835 7840 ft 2 kts 178°
2026-04-30 02:09 -0.12566 -78.35834 7840 ft 8 kts 178°
2026-04-30 02:09 -0.12643 -78.35831 7841 ft 14 kts 177°
2026-04-30 02:09 -0.12689 -78.35815 7837 ft 8 kts 130°
2026-04-30 02:09 -0.12695 -78.35733 7838 ft 16 kts 87°
2026-04-30 02:10 -0.12690 -78.35640 7840 ft 13 kts 88°
2026-04-30 02:10 -0.12723 -78.35604 7841 ft 7 kts 164°
2026-04-30 02:10 -0.12777 -78.35599 7844 ft 10 kts 177°
2026-04-30 02:10 -0.12876 -78.35595 7846 ft 16 kts 177°
2026-04-30 02:11 -0.12983 -78.35590 7849 ft 15 kts 179°
2026-04-30 02:11 -0.13085 -78.35586 7855 ft 14 kts 178°
2026-04-30 02:11 -0.13184 -78.35582 7862 ft 14 kts 177°
2026-04-30 02:11 -0.13302 -78.35577 7867 ft 19 kts 178°
2026-04-30 02:12 -0.13432 -78.35571 7873 ft 18 kts 178°
2026-04-30 02:12 -0.13559 -78.35566 7881 ft 18 kts 178°
2026-04-30 02:12 -0.13680 -78.35561 7889 ft 17 kts 178°
2026-04-30 02:12 -0.13798 -78.35557 7893 ft 17 kts 178°
2026-04-30 02:13 -0.13911 -78.35552 7896 ft 16 kts 178°
2026-04-30 02:13 -0.14020 -78.35546 7900 ft 15 kts 176°
2026-04-30 02:13 -0.14125 -78.35542 7914 ft 15 kts 178°
2026-04-30 02:13 -0.14223 -78.35530 7914 ft 14 kts 153°
2026-04-30 02:14 -0.14251 -78.35490 7914 ft 0 kts 102°
2026-04-30 02:20 -0.14253 -78.35470 7912 ft 8 kts 94°
2026-04-30 02:20 -0.14252 -78.35409 7911 ft 8 kts 86°
2026-04-30 02:21 -0.14216 -78.35370 7919 ft 8 kts 13°
2026-04-30 02:21 -0.14089 -78.35374 7911 ft 47 kts 358°
2026-04-30 02:21 -0.13508 -78.35398 7891 ft 118 kts 358°
2026-04-30 02:21 -0.12491 -78.35455 7853 ft 176 kts 356°
2026-04-30 02:22 -0.11167 -78.35532 8353 ft 193 kts 360°
2026-04-30 02:22 -0.09875 -78.35577 9502 ft 184 kts 351°
2026-04-30 02:22 -0.08619 -78.35946 10175 ft 201 kts 342°
2026-04-30 02:22 -0.07208 -78.36429 10351 ft 226 kts 342°
2026-04-30 02:23 -0.05637 -78.36958 10531 ft 250 kts 342°
2026-04-30 02:23 -0.03902 -78.37535 10747 ft 273 kts 342°
2026-04-30 02:23 -0.01997 -78.38160 10922 ft 301 kts 343°
2026-04-30 02:23 0.00083 -78.38837 11143 ft 326 kts 343°
2026-04-30 02:24 0.02258 -78.39542 11602 ft 336 kts 343°
2026-04-30 02:24 0.04512 -78.40268 12216 ft 343 kts 343°
2026-04-30 02:24 0.06787 -78.41001 12992 ft 345 kts 343°
2026-04-30 02:24 0.09098 -78.41744 13631 ft 350 kts 343°
2026-04-30 02:25 0.11439 -78.42495 14249 ft 356 kts 343°
2026-04-30 02:25 0.13814 -78.43256 14854 ft 360 kts 344°
2026-04-30 02:25 0.16195 -78.44063 15496 ft 361 kts 341°
2026-04-30 02:25 0.18515 -78.44983 15831 ft 364 kts 339°
2026-04-30 02:26 0.20862 -78.45971 15881 ft 366 kts 338°
2026-04-30 02:26 0.23210 -78.46970 15855 ft 366 kts 338°
2026-04-30 02:26 0.25548 -78.47960 15895 ft 365 kts 339°
2026-04-30 02:26 0.27904 -78.48947 15878 ft 366 kts 339°
2026-04-30 02:27 0.30262 -78.49928 15884 ft 366 kts 339°
2026-04-30 02:27 0.32587 -78.50891 15872 ft 367 kts 339°
2026-04-30 02:27 0.34949 -78.51867 15857 ft 366 kts 339°
2026-04-30 02:27 0.37310 -78.52840 15864 ft 365 kts 339°
2026-04-30 02:28 0.39671 -78.53814 15857 ft 367 kts 339°
2026-04-30 02:28 0.42027 -78.54786 15842 ft 366 kts 339°
2026-04-30 02:28 0.44351 -78.55744 15838 ft 365 kts 339°
2026-04-30 02:28 0.46709 -78.56716 15847 ft 366 kts 339°
2026-04-30 02:29 0.49073 -78.57688 15823 ft 366 kts 340°
2026-04-30 02:29 0.51497 -78.58328 15817 ft 363 kts 353°
2026-04-30 02:29 0.53997 -78.58672 15810 ft 363 kts 355°
2026-04-30 02:29 0.56514 -78.58967 15811 ft 364 kts 355°
2026-04-30 02:30 0.59040 -78.59270 15804 ft 363 kts 355°
2026-04-30 02:30 0.61540 -78.59588 15793 ft 362 kts 354°
2026-04-30 02:30 0.64069 -78.59915 16053 ft 368 kts 354°
2026-04-30 02:30 0.66595 -78.60242 16723 ft 369 kts 354°
2026-04-30 02:31 0.69145 -78.60572 17455 ft 369 kts 354°
2026-04-30 02:31 0.71702 -78.60902 18099 ft 371 kts 354°
2026-04-30 02:31 0.74282 -78.61233 18637 ft 375 kts 354°
2026-04-30 02:31 0.76856 -78.61563 19141 ft 379 kts 354°
2026-04-30 02:32 0.79480 -78.61898 19664 ft 381 kts 354°
2026-04-30 02:32 0.82133 -78.62238 20183 ft 384 kts 354°
2026-04-30 02:32 0.84800 -78.62579 20695 ft 388 kts 354°
2026-04-30 02:32 0.87496 -78.62924 21200 ft 391 kts 354°
2026-04-30 02:33 0.90204 -78.63270 21686 ft 394 kts 354°
2026-04-30 02:33 0.92908 -78.63615 22166 ft 397 kts 354°
2026-04-30 02:33 0.95666 -78.63968 22634 ft 400 kts 354°
2026-04-30 02:33 0.98449 -78.64323 23114 ft 403 kts 354°
2026-04-30 02:34 1.01245 -78.64681 23572 ft 406 kts 354°
2026-04-30 02:34 1.04020 -78.65036 23946 ft 409 kts 354°
2026-04-30 02:34 1.06854 -78.65398 24337 ft 411 kts 354°
2026-04-30 02:34 1.09704 -78.65762 24740 ft 413 kts 353°
2026-04-30 02:35 1.12567 -78.66128 25115 ft 415 kts 353°
2026-04-30 02:35 1.15451 -78.66497 25490 ft 417 kts 353°
2026-04-30 02:35 1.18307 -78.66862 25860 ft 420 kts 353°
2026-04-30 02:35 1.21215 -78.67234 26216 ft 422 kts 353°
2026-04-30 02:36 1.24141 -78.67608 26583 ft 424 kts 353°
2026-04-30 02:36 1.27084 -78.67984 26944 ft 427 kts 353°
2026-04-30 02:36 1.29037 -78.68234 27180 ft 428 kts 353°
2026-04-30 02:36 1.32002 -78.68613 27533 ft 430 kts 353°
2026-04-30 02:37 1.35956 -78.69119 27987 ft 433 kts 353°
2026-04-30 02:37 1.38955 -78.69502 28321 ft 435 kts 352°
2026-04-30 02:37 1.40955 -78.69758 28536 ft 437 kts 352°
2026-04-30 02:37 1.43983 -78.70145 28851 ft 439 kts 352°
2026-04-30 02:38 1.47022 -78.70534 29154 ft 441 kts 352°
2026-04-30 02:38 1.50083 -78.70925 29459 ft 443 kts 352°
2026-04-30 02:38 1.53151 -78.71317 29770 ft 445 kts 352°
2026-04-30 02:38 1.56233 -78.71712 30033 ft 448 kts 352°
2026-04-30 02:39 1.59346 -78.72110 30245 ft 451 kts 352°
2026-04-30 02:39 1.62429 -78.72504 30440 ft 454 kts 352°
2026-04-30 02:39 1.65575 -78.72906 30649 ft 456 kts 352°
2026-04-30 02:39 1.68740 -78.73311 30861 ft 459 kts 352°
2026-04-30 02:40 1.71930 -78.73719 31071 ft 461 kts 352°
2026-04-30 02:40 1.75086 -78.74123 31310 ft 463 kts 352°
2026-04-30 02:40 1.78285 -78.74531 31609 ft 463 kts 352°
2026-04-30 02:40 1.81492 -78.74941 31911 ft 464 kts 352°
2026-04-30 02:41 1.84702 -78.75352 32173 ft 465 kts 351°
2026-04-30 02:41 1.87917 -78.75763 32436 ft 466 kts 351°
2026-04-30 02:41 1.91151 -78.76177 32726 ft 467 kts 351°
2026-04-30 02:41 1.94338 -78.76585 33013 ft 468 kts 351°
2026-04-30 02:42 1.97585 -78.77000 33286 ft 469 kts 351°
2026-04-30 02:42 2.00834 -78.77415 33571 ft 470 kts 351°
2026-04-30 02:42 2.04087 -78.77832 33848 ft 471 kts 351°
2026-04-30 02:42 2.07303 -78.78243 34105 ft 471 kts 351°
2026-04-30 02:43 2.10554 -78.78659 34436 ft 469 kts 351°
2026-04-30 02:43 2.13786 -78.79071 34812 ft 466 kts 350°
2026-04-30 02:43 2.17005 -78.79483 35177 ft 463 kts 350°
2026-04-30 02:43 2.20204 -78.79892 35490 ft 462 kts 350°
2026-04-30 02:44 2.23393 -78.80300 35789 ft 461 kts 350°
2026-04-30 02:44 2.29761 -78.81116 35873 ft 466 kts 350°
2026-04-30 02:45 2.36189 -78.81939 35862 ft 461 kts 350°
2026-04-30 02:45 2.42532 -78.82749 35875 ft 458 kts 350°
2026-04-30 02:46 2.48834 -78.83556 35877 ft 458 kts 350°
2026-04-30 02:46 2.55156 -78.84366 35873 ft 459 kts 350°
2026-04-30 02:47 2.61499 -78.85179 35873 ft 459 kts 350°
2026-04-30 02:47 2.67861 -78.85993 35873 ft 460 kts 350°
2026-04-30 02:48 2.74181 -78.86803 35876 ft 460 kts 349°
2026-04-30 02:48 2.80543 -78.87618 35873 ft 461 kts 349°
2026-04-30 02:49 2.86894 -78.88431 35872 ft 461 kts 349°
2026-04-30 02:49 2.93277 -78.89249 35871 ft 462 kts 349°
2026-04-30 02:50 2.99635 -78.90063 35868 ft 462 kts 349°
2026-04-30 02:50 3.06037 -78.90883 35868 ft 462 kts 349°
2026-04-30 02:51 3.12391 -78.91697 35869 ft 462 kts 349°
2026-04-30 02:51 3.18786 -78.92517 35868 ft 463 kts 349°
2026-04-30 02:52 3.25178 -78.93336 35868 ft 463 kts 349°
2026-04-30 02:52 3.31547 -78.94152 35869 ft 463 kts 349°
2026-04-30 02:53 3.37938 -78.94972 35868 ft 463 kts 349°
2026-04-30 02:53 3.44329 -78.95791 35869 ft 463 kts 349°
2026-04-30 02:54 3.50682 -78.96606 35865 ft 462 kts 349°
2026-04-30 02:54 3.57085 -78.97427 35864 ft 462 kts 349°
2026-04-30 02:55 3.63443 -78.98243 35865 ft 462 kts 349°
2026-04-30 02:55 3.69850 -78.99065 35865 ft 463 kts 349°
2026-04-30 02:56 3.76208 -78.99881 35865 ft 463 kts 349°
2026-04-30 02:56 3.82617 -79.00703 35867 ft 463 kts 349°
2026-04-30 02:57 3.88977 -79.01519 35863 ft 463 kts 349°
2026-04-30 02:57 3.95393 -79.02343 35862 ft 463 kts 349°
2026-04-30 02:58 4.01774 -79.03162 35867 ft 463 kts 349°
2026-04-30 02:58 4.08189 -79.03986 35866 ft 464 kts 349°
2026-04-30 02:59 4.14549 -79.04803 35867 ft 464 kts 349°
2026-04-30 02:59 4.20960 -79.05626 35864 ft 464 kts 349°
2026-04-30 03:00 4.27389 -79.06452 35863 ft 464 kts 349°
2026-04-30 03:00 4.33782 -79.07274 35863 ft 464 kts 349°
2026-04-30 03:01 4.40166 -79.08094 35859 ft 465 kts 349°
2026-04-30 03:01 4.46598 -79.08921 35867 ft 465 kts 349°
2026-04-30 03:02 4.53027 -79.09747 35866 ft 465 kts 349°
2026-04-30 03:02 4.59422 -79.10570 35862 ft 465 kts 349°
2026-04-30 03:03 4.65859 -79.11398 35864 ft 465 kts 349°
2026-04-30 03:03 4.75485 -79.12636 35865 ft 465 kts 349°
2026-04-30 03:04 4.81885 -79.13459 35864 ft 465 kts 349°
2026-04-30 03:04 4.88314 -79.14286 35864 ft 465 kts 349°
2026-04-30 03:05 4.94745 -79.15114 35864 ft 465 kts 349°
2026-04-30 03:05 5.01137 -79.15937 35862 ft 465 kts 349°
2026-04-30 03:06 5.07571 -79.16765 35863 ft 464 kts 349°
2026-04-30 03:06 5.13955 -79.17588 35864 ft 464 kts 349°
2026-04-30 03:07 5.20373 -79.18415 35863 ft 464 kts 349°
2026-04-30 03:07 5.26764 -79.19238 35863 ft 464 kts 349°
2026-04-30 03:08 5.33196 -79.20067 35864 ft 464 kts 349°
2026-04-30 03:08 5.39577 -79.20889 35862 ft 464 kts 349°
2026-04-30 03:09 5.45987 -79.21716 35864 ft 464 kts 349°
2026-04-30 03:09 5.52374 -79.22540 35863 ft 464 kts 349°
2026-04-30 03:10 5.58814 -79.23370 35864 ft 464 kts 349°
2026-04-30 03:10 5.65198 -79.24194 35863 ft 465 kts 349°
2026-04-30 03:11 5.71638 -79.25025 35866 ft 465 kts 349°
2026-04-30 03:11 5.78011 -79.25847 35864 ft 465 kts 349°
2026-04-30 03:12 5.84450 -79.26679 35866 ft 465 kts 349°
2026-04-30 03:12 5.90854 -79.27506 35864 ft 466 kts 349°
2026-04-30 03:13 5.97288 -79.28337 35864 ft 466 kts 349°
2026-04-30 03:13 6.03742 -79.29170 35868 ft 466 kts 349°
2026-04-30 03:14 6.10146 -79.29998 35866 ft 466 kts 349°
2026-04-30 03:14 6.16600 -79.30832 35865 ft 466 kts 349°
2026-04-30 03:15 6.23036 -79.31663 35854 ft 463 kts 348°
2026-04-30 03:15 6.29370 -79.32481 35844 ft 460 kts 349°
2026-04-30 03:16 6.32559 -79.32895 35502 ft 462 kts 349°
2026-04-30 03:16 6.35731 -79.33305 35152 ft 457 kts 349°
2026-04-30 03:16 6.38882 -79.33712 34769 ft 454 kts 349°
2026-04-30 03:16 6.41980 -79.34112 34388 ft 451 kts 349°
2026-04-30 03:17 6.45093 -79.34515 33978 ft 450 kts 350°
2026-04-30 03:17 6.48199 -79.34917 33538 ft 446 kts 350°
2026-04-30 03:17 6.51215 -79.35307 33115 ft 437 kts 350°
2026-04-30 03:17 6.54216 -79.35694 32722 ft 428 kts 350°
2026-04-30 03:18 6.57144 -79.36072 32347 ft 419 kts 350°
2026-04-30 03:18 6.59978 -79.36439 31983 ft 411 kts 351°
2026-04-30 03:18 6.62786 -79.36802 31624 ft 402 kts 351°
2026-04-30 03:18 6.65539 -79.37159 31275 ft 395 kts 351°
2026-04-30 03:19 6.68270 -79.37514 30949 ft 396 kts 351°
2026-04-30 03:19 6.71040 -79.37875 30622 ft 407 kts 351°
2026-04-30 03:19 6.73902 -79.38248 30235 ft 418 kts 351°
2026-04-30 03:19 6.76731 -79.38615 29850 ft 410 kts 352°
2026-04-30 03:20 6.79545 -79.38979 29427 ft 401 kts 352°
2026-04-30 03:20 6.82284 -79.39333 29026 ft 391 kts 352°
2026-04-30 03:20 6.84954 -79.39678 28668 ft 382 kts 352°
2026-04-30 03:20 6.87563 -79.40016 28300 ft 374 kts 352°
2026-04-30 03:21 6.90094 -79.40344 27948 ft 367 kts 352°
2026-04-30 03:21 6.92608 -79.40670 27611 ft 363 kts 352°
2026-04-30 03:21 6.95140 -79.40999 27292 ft 371 kts 352°
2026-04-30 03:21 6.97725 -79.41335 26960 ft 385 kts 352°
2026-04-30 03:22 7.00424 -79.41686 26579 ft 391 kts 352°
2026-04-30 03:22 7.03102 -79.42033 26183 ft 382 kts 352°
2026-04-30 03:22 7.05722 -79.42373 25810 ft 373 kts 352°
2026-04-30 03:22 7.08276 -79.42703 25456 ft 365 kts 352°
2026-04-30 03:23 7.10739 -79.43022 25116 ft 357 kts 352°
2026-04-30 03:23 7.13179 -79.43339 24790 ft 350 kts 352°
2026-04-30 03:23 7.15588 -79.43651 24454 ft 345 kts 352°
2026-04-30 03:23 7.17961 -79.43960 24135 ft 343 kts 352°
2026-04-30 03:24 7.20349 -79.44270 23816 ft 351 kts 352°
2026-04-30 03:24 7.22814 -79.44591 23470 ft 361 kts 352°
2026-04-30 03:24 7.25261 -79.44909 23055 ft 355 kts 352°
2026-04-30 03:24 7.27688 -79.45224 22675 ft 346 kts 352°
2026-04-30 03:25 7.30047 -79.45530 22332 ft 337 kts 352°
2026-04-30 03:25 7.32343 -79.45828 22009 ft 329 kts 352°
2026-04-30 03:25 7.34568 -79.46117 21693 ft 324 kts 352°
2026-04-30 03:25 7.36785 -79.46405 21388 ft 320 kts 352°
2026-04-30 03:26 7.39011 -79.46694 21089 ft 326 kts 352°
2026-04-30 03:26 7.41339 -79.46997 20788 ft 344 kts 352°
2026-04-30 03:26 7.42912 -79.47202 20546 ft 342 kts 353°
2026-04-30 03:26 7.46006 -79.47604 20082 ft 332 kts 353°
2026-04-30 03:27 7.48267 -79.47898 19772 ft 323 kts 353°
2026-04-30 03:27 7.50482 -79.48186 19555 ft 320 kts 353°
2026-04-30 03:27 7.51981 -79.48381 19351 ft 322 kts 353°
2026-04-30 03:27 7.54177 -79.48666 19053 ft 322 kts 353°
2026-04-30 03:28 7.56408 -79.48956 18738 ft 320 kts 353°
2026-04-30 03:28 7.58601 -79.49242 18411 ft 314 kts 353°
2026-04-30 03:28 7.60762 -79.49523 18096 ft 311 kts 354°
2026-04-30 03:28 7.62877 -79.49798 17750 ft 309 kts 353°
2026-04-30 03:29 7.65044 -79.50079 17453 ft 320 kts 353°
2026-04-30 03:29 7.67303 -79.50373 17119 ft 330 kts 354°
2026-04-30 03:29 7.69587 -79.50669 16773 ft 330 kts 353°
2026-04-30 03:29 7.71865 -79.50966 16429 ft 328 kts 353°
2026-04-30 03:30 7.74131 -79.51261 16100 ft 326 kts 353°
2026-04-30 03:30 7.76382 -79.51555 15772 ft 325 kts 353°
2026-04-30 03:30 7.78587 -79.51842 15545 ft 320 kts 353°
2026-04-30 03:30 7.80787 -79.52129 15310 ft 318 kts 353°
2026-04-30 03:31 7.82989 -79.52415 15102 ft 317 kts 354°
2026-04-30 03:31 7.85177 -79.52700 15046 ft 320 kts 353°
2026-04-30 03:31 7.87391 -79.52988 15008 ft 320 kts 353°
2026-04-30 03:31 7.89596 -79.53275 15004 ft 318 kts 353°
2026-04-30 03:32 7.91763 -79.53558 15009 ft 318 kts 353°
2026-04-30 03:32 7.93963 -79.53844 15012 ft 319 kts 353°
2026-04-30 03:32 7.96174 -79.54132 15003 ft 319 kts 353°
2026-04-30 03:32 7.98375 -79.54419 15001 ft 318 kts 354°
2026-04-30 03:33 8.00597 -79.54592 14781 ft 321 kts 359°
2026-04-30 03:33 8.02788 -79.54616 14550 ft 315 kts
2026-04-30 03:33 8.04969 -79.54604 14315 ft 310 kts
2026-04-30 03:33 8.07130 -79.54590 14091 ft 310 kts
2026-04-30 03:34 8.09286 -79.54584 13868 ft 309 kts
2026-04-30 03:34 8.11415 -79.54586 13644 ft 310 kts
2026-04-30 03:34 8.13578 -79.54594 13396 ft 310 kts
2026-04-30 03:34 8.15739 -79.54607 13146 ft 309 kts
2026-04-30 03:35 8.17882 -79.54622 12895 ft 306 kts
2026-04-30 03:35 8.20010 -79.54640 12645 ft 303 kts
2026-04-30 03:35 8.22080 -79.54657 12401 ft 298 kts
2026-04-30 03:35 8.24174 -79.54676 12170 ft 301 kts
2026-04-30 03:36 8.26278 -79.54694 11930 ft 301 kts
2026-04-30 03:36 8.28378 -79.54713 11687 ft 301 kts
2026-04-30 03:36 8.30466 -79.54732 11445 ft 299 kts
2026-04-30 03:36 8.32516 -79.54751 11212 ft 298 kts
2026-04-30 03:37 8.34591 -79.54770 10974 ft 296 kts
2026-04-30 03:37 8.36653 -79.54789 10765 ft 293 kts
2026-04-30 03:37 8.38644 -79.54807 10631 ft 279 kts
2026-04-30 03:37 8.40544 -79.54825 10398 ft 275 kts
2026-04-30 03:38 8.42471 -79.54842 10145 ft 278 kts
2026-04-30 03:38 8.44394 -79.54860 10030 ft 273 kts
2026-04-30 03:38 8.46278 -79.54877 9735 ft 266 kts
2026-04-30 03:38 8.48089 -79.54894 9460 ft 263 kts
2026-04-30 03:39 8.49922 -79.54910 9187 ft 263 kts
2026-04-30 03:39 8.51781 -79.54927 8918 ft 271 kts
2026-04-30 03:39 8.53676 -79.54944 8619 ft 269 kts
2026-04-30 03:39 8.55524 -79.54962 8317 ft 262 kts
2026-04-30 03:40 8.57289 -79.54978 8154 ft 251 kts
2026-04-30 03:40 8.59022 -79.54994 8035 ft 246 kts
2026-04-30 03:40 8.60730 -79.54856 7793 ft 247 kts 12°
2026-04-30 03:40 8.62387 -79.54466 7534 ft 242 kts 14°
2026-04-30 03:41 8.64039 -79.54033 7027 ft 246 kts 15°
2026-04-30 03:41 8.65638 -79.53617 6898 ft 229 kts 14°
2026-04-30 03:41 8.67138 -79.53234 6720 ft 214 kts 14°
2026-04-30 03:41 8.68553 -79.52878 6439 ft 207 kts 14°
2026-04-30 03:42 8.69950 -79.52531 6080 ft 204 kts 14°
2026-04-30 03:42 8.71307 -79.52197 5783 ft 196 kts 14°
2026-04-30 03:42 8.72461 -79.51914 5542 ft 190 kts 14°
2026-04-30 03:42 8.73736 -79.51603 5298 ft 185 kts 14°
2026-04-30 03:43 8.74980 -79.51301 5065 ft 182 kts 14°
2026-04-30 03:43 8.76209 -79.51002 4831 ft 181 kts 14°
2026-04-30 03:43 8.77444 -79.50702 4612 ft 184 kts 14°
2026-04-30 03:43 8.78709 -79.50395 4347 ft 189 kts 14°
2026-04-30 03:44 8.79986 -79.50084 4108 ft 191 kts 14°
2026-04-30 03:44 8.81279 -79.49769 3864 ft 191 kts 14°
2026-04-30 03:44 8.82580 -79.49453 3626 ft 192 kts 14°
2026-04-30 03:44 8.83869 -79.49139 3382 ft 192 kts 14°
2026-04-30 03:45 8.85161 -79.48824 3125 ft 189 kts 14°
2026-04-30 03:45 8.86426 -79.48516 2878 ft 186 kts 14°
2026-04-30 03:45 8.87684 -79.48210 2639 ft 185 kts 14°
2026-04-30 03:45 8.88930 -79.47907 2404 ft 182 kts 14°
2026-04-30 03:46 8.90111 -79.47548 2239 ft 177 kts 23°
2026-04-30 03:46 8.91197 -79.47012 2124 ft 168 kts 27°
2026-04-30 03:46 8.92209 -79.46449 2043 ft 165 kts 28°
2026-04-30 03:46 8.93202 -79.45884 1964 ft 162 kts 29°
2026-04-30 03:47 8.94186 -79.45320 1891 ft 166 kts 28°
2026-04-30 03:47 8.95175 -79.44753 1819 ft 162 kts 28°
2026-04-30 03:47 8.96122 -79.44210 1757 ft 150 kts 27°
2026-04-30 03:47 8.97013 -79.43700 1678 ft 143 kts 28°
2026-04-30 03:48 8.97894 -79.43196 1512 ft 146 kts 27°
2026-04-30 03:48 8.98784 -79.42686 1337 ft 146 kts 26°
2026-04-30 03:48 8.99673 -79.42177 1164 ft 146 kts 27°
2026-04-30 03:48 9.00560 -79.41668 985 ft 149 kts 26°
2026-04-30 03:49 9.01475 -79.41145 804 ft 154 kts 28°
2026-04-30 03:49 9.02410 -79.40608 619 ft 153 kts 26°
2026-04-30 03:49 9.03336 -79.40074 355 ft 150 kts 26°
2026-04-30 03:49 9.04239 -79.39560 171 ft 150 kts 27°
2026-04-30 03:50 9.05127 -79.39055 38 ft 139 kts 27°
2026-04-30 03:50 9.05861 -79.38636 31 ft 94 kts 30°
2026-04-30 03:50 9.06246 -79.38417 30 ft 41 kts 29°
2026-04-30 03:50 9.06446 -79.38376 29 ft 27 kts 359°
2026-04-30 03:51 9.06574 -79.38384 29 ft 1 kts 321°
2026-04-30 03:51 9.06571 -79.38399 29 ft 6 kts 249°
2026-04-30 03:51 9.06515 -79.38437 29 ft 13 kts 208°
2026-04-30 03:51 9.06458 -79.38469 29 ft 0 kts 209°